Time,TemperatureF,DewpointF,PressureIn,WindDirection,WindDirectionDegrees,WindSpeedMPH,WindSpeedGustMPH,Humidity,HourlyPrecipIn,Conditions,Clouds,dailyrainin,SolarRadiationWatts/m^2,SoftwareType,DateUTC
2013-02-19 00:02:00,43.0,21.0,-100.00,SSE,154,13.0,30.0,41,0.00,,,0.00,0.000000,,2013-02-19 05:02:00,
2013-02-19 00:33:00,42.0,21.0,-100.00,SSE,148,11.0,26.0,42,0.00,,,0.00,0.000000,,2013-02-19 05:33:00,
2013-02-19 00:43:00,42.0,21.0,-100.00,SSE,148,11.0,26.0,42,0.00,,,0.00,0.000000,,2013-02-19 05:43:00,
2013-02-19 00:52:00,42.0,21.0,-100.00,SSE,148,11.0,26.0,42,0.00,,,0.00,0.000000,,2013-02-19 05:52:00,
2013-02-19 01:03:00,42.0,21.0,-100.00,SSE,148,11.0,26.0,42,0.00,,,0.00,0.000000,,2013-02-19 06:03:00,
2013-02-19 01:33:00,42.0,16.0,-100.00,SSE,155,13.0,27.0,35,0.00,,,-99.99,0.000000,,2013-02-19 06:33:00,
2013-02-19 01:42:00,42.0,16.0,-100.00,SSE,155,13.0,27.0,35,0.00,,,-99.99,0.000000,,2013-02-19 06:42:00,
2013-02-19 01:53:00,42.0,16.0,-100.00,SSE,155,13.0,27.0,35,0.00,,,-99.99,0.000000,,2013-02-19 06:53:00,
2013-02-19 02:02:00,42.0,16.0,-100.00,SSE,155,13.0,27.0,35,0.00,,,-99.99,0.000000,,2013-02-19 07:02:00,
2013-02-19 02:32:00,42.0,16.0,-100.00,SSE,167,10.0,23.0,35,0.00,,,0.00,0.000000,,2013-02-19 07:32:00,
2013-02-19 02:42:00,42.0,16.0,-100.00,SSE,167,10.0,23.0,35,0.00,,,0.00,0.000000,,2013-02-19 07:42:00,
2013-02-19 02:52:00,42.0,16.0,-100.00,SSE,167,10.0,23.0,35,0.00,,,0.00,0.000000,,2013-02-19 07:52:00,
2013-02-19 03:32:00,39.0,24.0,-100.00,South,178,4.0,26.0,54,0.01,,,0.01,0.000000,,2013-02-19 08:32:00,
2013-02-19 03:42:00,39.0,24.0,-100.00,South,178,4.0,26.0,54,0.01,,,0.01,0.000000,,2013-02-19 08:42:00,
2013-02-19 03:52:00,39.0,24.0,-100.00,South,178,4.0,26.0,54,0.01,,,0.01,0.000000,,2013-02-19 08:52:00,
2013-02-19 04:02:00,39.0,24.0,-100.00,South,178,4.0,26.0,54,0.01,,,0.01,0.000000,,2013-02-19 09:02:00,
2013-02-19 04:32:00,37.0,28.0,-100.00,SSE,149,2.0,17.0,71,0.02,,,0.03,0.000000,,2013-02-19 09:32:00,
2013-02-19 04:42:00,37.0,28.0,-100.00,SSE,149,2.0,17.0,71,0.02,,,0.03,0.000000,,2013-02-19 09:42:00,
2013-02-19 04:53:00,37.0,28.0,-100.00,SSE,149,2.0,17.0,71,0.02,,,0.03,0.000000,,2013-02-19 09:53:00,
2013-02-19 05:02:00,37.0,28.0,-100.00,SSE,149,2.0,17.0,71,0.02,,,0.03,0.000000,,2013-02-19 10:02:00,
2013-02-19 05:32:00,33.0,30.0,-100.00,NE,49,1.0,13.0,90,0.02,,,0.05,0.000000,,2013-02-19 10:32:00,
2013-02-19 05:42:00,33.0,30.0,-100.00,NE,49,1.0,13.0,90,0.02,,,0.05,0.000000,,2013-02-19 10:42:00,
2013-02-19 05:52:00,33.0,30.0,-100.00,NE,49,1.0,13.0,90,0.02,,,0.05,0.000000,,2013-02-19 10:52:00,
2013-02-19 06:01:00,33.0,30.0,-100.00,NE,49,1.0,13.0,90,0.02,,,0.05,0.000000,,2013-02-19 11:01:00,
2013-02-19 06:32:00,32.0,31.0,-100.00,East,90,0.0,1.0,96,0.00,,,0.05,0.000000,,2013-02-19 11:32:00,
2013-02-19 06:42:00,32.0,31.0,-100.00,East,90,0.0,1.0,96,0.00,,,0.05,0.000000,,2013-02-19 11:42:00,
2013-02-19 06:52:00,32.0,31.0,-100.00,East,90,0.0,1.0,96,0.00,,,0.05,0.000000,,2013-02-19 11:52:00,
2013-02-19 07:02:00,32.0,31.0,-100.00,East,90,0.0,1.0,96,0.00,,,0.05,0.000000,,2013-02-19 12:02:00,
2013-02-19 07:33:00,33.0,32.0,-100.00,ESE,118,0.0,6.0,97,0.00,,,0.05,0.000000,,2013-02-19 12:33:00,
2013-02-19 07:42:00,33.0,32.0,-100.00,ESE,118,0.0,6.0,97,0.00,,,0.05,0.000000,,2013-02-19 12:42:00,
2013-02-19 07:53:00,33.0,32.0,-100.00,ESE,118,0.0,6.0,97,0.00,,,0.05,0.000000,,2013-02-19 12:53:00,
2013-02-19 08:02:00,33.0,32.0,-100.00,ESE,118,0.0,6.0,97,0.00,,,0.05,0.000000,,2013-02-19 13:02:00,
2013-02-19 08:32:00,34.0,33.0,-100.00,SSE,150,3.0,7.0,95,0.00,,,0.05,6.000000,,2013-02-19 13:32:00,
2013-02-19 08:42:00,34.0,33.0,-100.00,SSE,150,3.0,7.0,95,0.00,,,0.05,6.000000,,2013-02-19 13:42:00,
2013-02-19 08:52:00,34.0,33.0,-100.00,SSE,150,3.0,7.0,95,0.00,,,0.05,6.000000,,2013-02-19 13:52:00,
2013-02-19 09:02:00,34.0,33.0,-100.00,SSE,150,3.0,7.0,95,0.00,,,0.05,6.000000,,2013-02-19 14:02:00,
2013-02-19 09:33:00,35.0,34.0,-100.00,NNE,28,1.0,6.0,96,0.07,,,0.12,25.000000,,2013-02-19 14:33:00,
2013-02-19 09:42:00,35.0,34.0,-100.00,NNE,28,1.0,6.0,96,0.07,,,0.12,25.000000,,2013-02-19 14:42:00,
2013-02-19 09:52:00,35.0,34.0,-100.00,NNE,28,1.0,6.0,96,0.07,,,0.12,25.000000,,2013-02-19 14:52:00,
2013-02-19 10:02:00,35.0,34.0,-100.00,NNE,28,1.0,6.0,96,0.07,,,0.12,25.000000,,2013-02-19 15:02:00,
2013-02-19 10:32:00,36.0,35.0,-100.00,SE,141,1.0,6.0,96,0.09,,,0.21,38.000000,,2013-02-19 15:32:00,
2013-02-19 10:42:00,36.0,35.0,-100.00,SE,141,1.0,6.0,96,0.09,,,0.21,38.000000,,2013-02-19 15:42:00,
2013-02-19 10:52:00,36.0,35.0,-100.00,SE,141,1.0,6.0,96,0.09,,,0.21,38.000000,,2013-02-19 15:52:00,
2013-02-19 11:02:00,36.0,35.0,-100.00,SE,141,1.0,6.0,96,0.09,,,0.21,38.000000,,2013-02-19 16:02:00,
2013-02-19 12:32:00,39.0,38.0,-100.00,SSE,159,3.0,7.0,98,-99.99,,,0.30,98.000000,,2013-02-19 17:32:00,
2013-02-19 12:42:00,39.0,38.0,-100.00,SSE,159,3.0,7.0,98,-99.99,,,0.30,98.000000,,2013-02-19 17:42:00,
2013-02-19 12:52:00,39.0,38.0,-100.00,SSE,159,3.0,7.0,98,-99.99,,,0.30,98.000000,,2013-02-19 17:52:00,
2013-02-19 13:02:00,39.0,38.0,-100.00,SSE,159,3.0,7.0,98,-99.99,,,0.30,98.000000,,2013-02-19 18:02:00,
2013-02-19 13:32:00,44.0,43.0,-100.00,SE,143,5.0,10.0,97,0.00,,,0.30,224.000000,,2013-02-19 18:32:00,
2013-02-19 13:42:00,44.0,43.0,-100.00,SE,143,5.0,10.0,97,0.00,,,0.30,224.000000,,2013-02-19 18:42:00,
2013-02-19 13:52:00,44.0,43.0,-100.00,SE,143,5.0,10.0,97,0.00,,,0.30,224.000000,,2013-02-19 18:52:00,
2013-02-19 14:01:00,44.0,43.0,-100.00,SE,143,5.0,10.0,97,0.00,,,0.30,224.000000,,2013-02-19 19:01:00,
2013-02-19 14:32:00,49.0,35.0,-100.00,West,280,6.0,15.0,59,0.00,,,0.30,638.000000,,2013-02-19 19:32:00,
2013-02-19 14:42:00,49.0,35.0,-100.00,West,280,6.0,15.0,59,0.00,,,0.30,638.000000,,2013-02-19 19:42:00,
2013-02-19 14:52:00,49.0,35.0,-100.00,West,280,6.0,15.0,59,0.00,,,0.30,638.000000,,2013-02-19 19:52:00,
2013-02-19 15:02:00,49.0,35.0,-100.00,West,280,6.0,15.0,59,0.00,,,0.30,638.000000,,2013-02-19 20:02:00,
2013-02-19 15:32:00,50.0,31.0,-100.00,West,265,8.0,17.0,47,0.00,,,-99.99,734.000000,,2013-02-19 20:32:00,
2013-02-19 15:42:00,50.0,31.0,-100.00,West,265,8.0,17.0,47,0.00,,,-99.99,734.000000,,2013-02-19 20:42:00,
2013-02-19 15:52:00,50.0,31.0,-100.00,West,265,8.0,17.0,47,0.00,,,-99.99,734.000000,,2013-02-19 20:52:00,
2013-02-19 16:02:00,50.0,31.0,-100.00,West,265,8.0,17.0,47,0.00,,,-99.99,734.000000,,2013-02-19 21:02:00,
2013-02-19 16:32:00,49.0,25.0,-100.00,SW,234,7.0,18.0,38,0.00,,,-99.99,577.000000,,2013-02-19 21:32:00,
2013-02-19 16:42:00,49.0,25.0,-100.00,SW,234,7.0,18.0,38,0.00,,,-99.99,577.000000,,2013-02-19 21:42:00,
2013-02-19 16:52:00,49.0,25.0,-100.00,SW,234,7.0,18.0,38,0.00,,,-99.99,577.000000,,2013-02-19 21:52:00,
2013-02-19 17:02:00,49.0,25.0,-100.00,SW,234,7.0,18.0,38,0.00,,,-99.99,577.000000,,2013-02-19 22:02:00,
2013-02-19 17:32:00,48.0,21.0,-100.00,NW,306,5.0,20.0,34,0.00,,,-99.99,373.000000,,2013-02-19 22:32:00,
2013-02-19 17:42:00,48.0,21.0,-100.00,NW,306,5.0,20.0,34,0.00,,,-99.99,373.000000,,2013-02-19 22:42:00,
2013-02-19 17:52:00,48.0,21.0,-100.00,NW,306,5.0,20.0,34,0.00,,,-99.99,373.000000,,2013-02-19 22:52:00,
2013-02-19 18:01:00,48.0,21.0,-100.00,NW,306,5.0,20.0,34,0.00,,,-99.99,373.000000,,2013-02-19 23:01:00,
2013-02-19 18:32:00,44.0,13.0,-100.00,NW,313,8.0,18.0,28,0.00,,,0.30,115.000000,,2013-02-19 23:32:00,
2013-02-19 18:42:00,44.0,13.0,-100.00,NW,313,8.0,18.0,28,0.00,,,0.30,115.000000,,2013-02-19 23:42:00,
2013-02-19 18:52:00,44.0,13.0,-100.00,NW,313,8.0,18.0,28,0.00,,,0.30,115.000000,,2013-02-19 23:52:00,
2013-02-19 19:02:00,44.0,13.0,-100.00,NW,313,8.0,18.0,28,0.00,,,0.30,115.000000,,2013-02-20 00:02:00,
2013-02-19 19:32:00,42.0,14.0,-100.00,WNW,294,8.0,19.0,32,0.00,,,0.30,4.000000,,2013-02-20 00:32:00,
2013-02-19 19:42:00,42.0,14.0,-100.00,WNW,294,8.0,19.0,32,0.00,,,0.30,4.000000,,2013-02-20 00:42:00,
2013-02-19 19:52:00,42.0,14.0,-100.00,WNW,294,8.0,19.0,32,0.00,,,0.30,4.000000,,2013-02-20 00:52:00,
2013-02-19 20:02:00,42.0,14.0,-100.00,WNW,294,8.0,19.0,32,0.00,,,0.30,4.000000,,2013-02-20 01:02:00,
2013-02-19 20:32:00,40.0,10.0,-100.00,WNW,294,8.0,17.0,28,0.00,,,0.30,0.000000,,2013-02-20 01:32:00,
2013-02-19 20:42:00,40.0,10.0,-100.00,WNW,294,8.0,17.0,28,0.00,,,0.30,0.000000,,2013-02-20 01:42:00,
2013-02-19 20:52:00,40.0,10.0,-100.00,WNW,294,8.0,17.0,28,0.00,,,0.30,0.000000,,2013-02-20 01:52:00,
2013-02-19 21:02:00,40.0,10.0,-100.00,WNW,294,8.0,17.0,28,0.00,,,0.30,0.000000,,2013-02-20 02:02:00,
2013-02-19 21:32:00,37.0,5.0,-100.00,West,280,6.0,24.0,26,0.00,,,0.30,0.000000,,2013-02-20 02:32:00,
2013-02-19 22:02:00,37.0,5.0,-100.00,West,280,6.0,24.0,26,0.00,,,0.30,0.000000,,2013-02-20 03:02:00,
2013-02-19 22:32:00,36.0,9.0,-100.00,West,274,5.0,16.0,32,0.00,,,0.30,0.000000,,2013-02-20 03:32:00,
2013-02-19 22:42:00,36.0,9.0,-100.00,West,274,5.0,16.0,32,0.00,,,0.30,0.000000,,2013-02-20 03:42:00,
2013-02-19 22:52:00,36.0,9.0,-100.00,West,274,5.0,16.0,32,0.00,,,0.30,0.000000,,2013-02-20 03:52:00,
2013-02-19 23:01:00,36.0,9.0,-100.00,West,274,5.0,16.0,32,0.00,,,0.30,0.000000,,2013-02-20 04:01:00,
2013-02-19 23:32:00,34.0,9.0,-100.00,NW,309,3.0,16.0,34,0.00,,,0.30,0.000000,,2013-02-20 04:32:00,
2013-02-19 23:42:00,34.0,9.0,-100.00,NW,309,3.0,16.0,34,0.00,,,0.30,0.000000,,2013-02-20 04:42:00,
2013-02-19 23:52:00,34.0,9.0,-100.00,NW,309,3.0,16.0,34,0.00,,,0.30,0.000000,,2013-02-20 04:52:00,